$DATE,$TIME,DM0600B,DM0602B,DM0604B,DM0614B,DM0616B,DM0618B,DM0624B,DM0628B,DM0630B,DM0634B,DM0606B,DM0608B,DM0610B
12/05/94,00:00:00,43,32,32,17,0,72,69,78,52,0,7,6,7
12/05/94,00:05:00,54,32,24,31,0,68,65,78,53,0,8,6,6
12/05/94,00:10:00,41,35,25,20,0,70,67,78,53,0,7,6,7
12/05/94,00:15:00,45,39,24,20,0,70,67,78,52,0,7,6,7
12/05/94,00:20:00,40,25,31,23,0,69,66,78,50,0,8,6,7
12/05/94,00:25:00,38,33,26,32,0,66,63,78,55,0,7,6,7
12/05/94,00:30:00,36,39,32,27,0,59,56,78,59,0,8,6,7
12/05/94,00:35:00,43,30,27,29,0,61,58,78,59,0,8,6,7
12/05/94,00:40:00,33,27,23,29,0,66,63,78,59,0,8,6,8
12/05/94,00:45:00,39,24,30,31,0,65,62,78,61,0,7,7,8
12/05/94,00:50:00,29,24,28,29,0,70,67,78,61,0,7,7,7
12/05/94,00:55:00,36,28,31,27,0,63,60,78,61,0,7,7,7
12/05/94,01:00:00,36,33,26,27,0,63,60,78,59,0,7,6,7
12/05/94,01:05:00,39,28,26,29,0,59,57,78,59,0,7,6,7
12/05/94,01:10:00,40,40,30,38,0,65,62,78,59,0,7,6,7
12/05/94,01:15:00,43,28,35,28,0,57,54,78,59,0,7,6,7
12/05/94,01:20:00,53,22,29,32,0,54,52,78,59,0,7,6,7
12/05/94,01:25:00,37,37,28,35,0,55,53,78,59,0,7,6,7
12/05/94,01:30:00,30,29,30,24,0,65,62,78,61,0,7,6,7
12/05/94,01:35:00,40,50,28,28,0,59,56,78,61,0,8,6,7
12/05/94,01:40:00,42,37,32,30,0,59,56,78,61,0,8,6,7
12/05/94,01:45:00,27,32,26,39,0,57,55,78,59,0,8,7,8
12/05/94,01:50:00,38,32,27,28,0,59,57,78,59,0,8,7,7
12/05/94,01:55:00,37,31,30,27,0,62,59,78,59,0,7,7,7
12/05/94,02:00:00,45,42,43,38,0,0,0,79,59,0,7,7,7
12/05/94,02:05:00,54,41,29,43,0,0,0,79,62,0,7,6,7
12/05/94,02:10:00,44,42,43,47,0,0,0,79,59,0,8,6,7
12/05/94,02:15:00,42,31,43,39,0,0,0,79,61,0,7,6,7
12/05/94,02:20:00,45,36,40,37,0,56,53,78,59,0,8,6,6
12/05/94,02:25:00,42,34,31,27,0,56,54,78,59,0,7,6,6
12/05/94,02:30:00,49,32,34,25,0,51,49,78,57,0,7,6,7
12/05/94,02:35:00,33,27,28,32,0,48,45,78,53,0,7,6,6
12/05/94,02:40:00,34,29,31,32,0,47,45,78,62,0,8,7,6
12/05/94,02:45:00,42,21,38,31,0,46,44,78,57,0,8,6,6
12/05/94,02:50:00,45,27,31,35,0,47,45,78,57,0,8,6,7
12/05/94,02:55:00,35,34,35,30,0,47,45,78,57,0,8,6,7
12/05/94,03:00:00,40,39,22,22,0,46,44,78,59,0,8,6,7
12/05/94,03:05:00,40,31,27,39,0,47,45,78,55,0,8,6,6
12/05/94,03:10:00,34,19,29,28,0,45,43,78,51,0,8,5,6
12/05/94,03:15:00,34,20,28,23,0,44,42,78,50,0,7,6,6
12/05/94,03:20:00,29,30,31,29,0,43,41,78,49,0,7,5,6
12/05/94,03:25:00,31,24,31,27,0,42,40,78,49,0,7,5,6
12/05/94,03:30:00,29,31,30,30,0,42,40,78,49,0,7,5,6
12/05/94,03:35:00,29,41,25,37,0,42,40,78,49,0,7,6,6
12/05/94,03:40:00,42,34,29,34,0,41,40,78,49,0,8,6,6
12/05/94,03:45:00,42,30,31,34,0,41,39,78,51,0,8,6,6
12/05/94,03:50:00,42,25,32,30,0,40,38,78,46,0,8,6,6
12/05/94,03:55:00,37,36,28,32,0,39,37,78,46,0,7,6,7
12/05/94,04:00:00,35,33,36,33,0,38,37,78,46,0,7,6,7
12/05/94,04:05:00,43,35,37,35,0,38,37,78,46,0,7,6,7
12/05/94,04:10:00,37,29,34,27,0,38,36,78,46,0,7,6,7
12/05/94,04:15:00,34,25,33,39,0,39,37,78,46,0,7,6,6
12/05/94,04:20:00,43,44,30,31,0,41,39,78,45,0,7,6,7
12/05/94,04:25:00,42,35,31,34,0,42,40,78,45,0,7,6,7
12/05/94,04:30:00,50,27,29,33,0,44,42,78,45,0,7,6,7
12/05/94,04:35:00,31,46,38,30,0,45,43,78,46,0,7,6,7
12/05/94,04:40:00,46,28,31,31,0,46,44,78,46,0,7,6,7
12/05/94,04:45:00,45,42,38,33,0,49,47,78,53,0,8,6,7
12/05/94,04:50:00,38,22,26,30,0,49,46,78,54,0,7,6,7
12/05/94,04:55:00,29,47,36,32,0,48,46,78,57,0,7,6,7
12/05/94,05:00:00,37,41,29,27,0,47,45,78,49,0,7,6,8
12/05/94,05:05:00,34,32,26,36,0,45,43,78,48,0,7,6,7
12/05/94,05:10:00,52,27,29,32,0,44,42,78,48,0,7,6,7
12/05/94,05:15:00,40,23,29,28,0,42,40,78,47,0,7,6,7
12/05/94,05:20:00,49,25,29,33,0,40,38,78,47,0,7,6,7
12/05/94,05:25:00,42,36,32,34,0,38,36,78,47,0,7,7,6
12/05/94,05:30:00,34,31,31,29,0,37,35,78,47,0,7,7,6
12/05/94,05:35:00,45,45,35,33,0,37,35,78,51,0,7,6,6
12/05/94,05:40:00,44,34,29,30,0,36,35,78,46,0,7,6,6
12/05/94,05:45:00,33,31,36,34,0,37,36,78,49,0,7,6,6
12/05/94,05:50:00,30,41,26,38,0,39,37,78,48,0,8,6,6
12/05/94,05:55:00,56,40,39,31,0,41,39,77,46,0,7,6,6
12/05/94,06:00:00,44,35,35,29,0,42,41,78,47,0,7,6,6
12/05/94,06:05:00,50,26,33,31,0,45,43,78,46,0,8,6,7
12/05/94,06:10:00,46,35,28,27,0,40,39,78,47,0,7,6,7
12/05/94,06:15:00,42,36,33,28,0,37,36,78,47,0,7,6,7
12/05/94,06:20:00,39,37,27,38,0,35,34,78,46,0,7,7,7
12/05/94,06:25:00,41,35,32,35,0,35,33,78,49,0,7,7,7
12/05/94,06:30:00,46,33,37,35,0,33,31,78,49,0,7,6,7
12/05/94,06:35:00,41,35,32,37,0,32,31,78,49,0,7,6,7
12/05/94,06:40:00,34,28,34,34,0,31,30,78,47,0,7,6,7
12/05/94,06:45:00,40,22,47,27,0,32,31,78,47,0,7,6,7
12/05/94,06:50:00,39,38,22,34,0,31,30,78,47,0,8,6,7
12/05/94,06:55:00,40,39,38,31,0,31,30,78,47,0,8,6,7
12/05/94,07:00:00,41,34,35,30,0,31,30,78,63,0,8,6,7
12/05/94,07:05:00,43,46,39,36,0,31,30,78,39,0,7,6,7
12/05/94,07:10:00,31,37,35,33,0,29,28,78,41,0,7,6,8
12/05/94,07:15:00,41,31,31,36,0,29,28,78,41,0,7,6,7
12/05/94,07:20:00,40,31,32,29,0,29,28,78,41,0,7,7,7
12/05/94,07:25:00,37,39,37,36,0,28,27,78,39,0,7,6,7
12/05/94,07:30:00,45,30,34,34,0,27,25,78,39,0,7,6,7
12/05/94,07:35:00,35,36,34,33,0,24,23,78,38,0,7,6,7
12/05/94,07:40:00,41,32,33,34,0,25,24,78,38,0,7,6,7
12/05/94,07:45:00,41,41,24,35,0,24,23,78,38,0,7,6,7
12/05/94,07:50:00,37,37,29,34,0,24,23,78,38,0,7,6,7
12/05/94,07:55:00,53,32,40,29,0,25,24,78,40,0,8,6,7
12/05/94,08:00:00,39,29,28,33,0,24,23,78,40,0,8,6,7
12/05/94,08:05:00,42,47,38,37,0,24,23,78,38,0,7,6,7
12/05/94,08:10:00,41,30,32,37,0,24,23,78,38,0,7,6,7
12/05/94,08:15:00,30,29,33,31,0,24,23,79,38,0,7,7,8
12/05/94,08:20:00,38,33,33,30,0,23,22,79,38,0,7,6,7
12/05/94,08:25:00,37,28,37,32,0,22,21,79,38,0,7,6,7
12/05/94,08:30:00,38,58,39,35,0,22,21,78,41,0,7,6,7
12/05/94,08:35:00,40,41,37,38,0,21,20,79,43,0,7,6,6
12/05/94,08:40:00,40,32,36,39,0,20,19,79,43,0,7,6,6
12/05/94,08:45:00,50,37,40,39,0,19,18,79,43,0,7,6,6
12/05/94,08:50:00,46,34,41,35,0,18,17,78,41,0,7,6,6
12/05/94,08:55:00,45,41,32,37,0,17,17,78,41,0,7,6,6
12/05/94,09:00:00,40,27,40,38,0,16,16,78,41,0,8,6,6
12/05/94,09:05:00,51,36,40,34,0,16,15,78,41,0,8,6,6
12/05/94,09:10:00,45,41,45,36,0,16,15,78,41,0,8,6,6
12/05/94,09:15:00,52,36,40,36,0,16,15,78,41,0,7,6,6
12/05/94,09:20:00,55,39,41,37,0,15,15,78,43,0,7,6,7
12/05/94,09:25:00,50,36,45,37,0,14,14,78,43,0,7,6,7
12/05/94,09:30:00,56,36,40,34,0,14,13,78,53,0,7,6,7
12/05/94,09:35:00,58,36,40,37,0,14,13,78,41,0,7,5,7
12/05/94,09:40:00,49,37,38,37,0,14,13,78,41,0,7,5,7
12/05/94,09:45:00,58,30,41,37,0,14,14,78,41,0,7,5,7
12/05/94,09:50:00,55,37,39,38,0,14,14,78,41,0,7,5,7
12/05/94,09:55:00,44,37,37,39,0,14,14,78,41,0,7,5,7
12/05/94,10:00:00,44,34,39,37,0,14,14,78,39,0,8,6,7
12/05/94,10:05:00,49,36,33,30,0,13,13,78,40,0,8,6,6
12/05/94,10:10:00,45,35,34,41,0,13,12,78,40,0,8,6,6
12/05/94,10:15:00,40,39,36,39,0,12,12,78,40,0,8,6,7
12/05/94,10:20:00,40,34,37,36,0,11,11,78,38,0,8,6,6
12/05/94,10:25:00,42,38,34,41,0,11,10,78,38,0,7,6,7
12/05/94,10:30:00,49,31,46,32,0,11,10,78,38,0,7,6,7
12/05/94,10:35:00,45,27,36,39,0,10,10,78,38,0,7,6,7
12/05/94,10:40:00,45,37,35,36,0,10,9,78,38,0,8,6,7
12/05/94,10:45:00,41,47,38,35,0,10,9,79,54,0,8,5,7
12/05/94,10:50:00,39,29,38,41,0,10,10,78,40,0,7,5,6
12/05/94,10:55:00,37,37,38,38,0,10,9,78,40,0,7,6,7
12/05/94,11:00:00,50,30,33,26,0,10,10,78,40,0,8,6,6
12/05/94,11:05:00,27,49,35,40,0,11,11,78,38,0,8,6,6
12/05/94,11:10:00,36,33,36,30,0,13,13,79,38,0,8,6,6
12/05/94,11:15:00,49,44,37,31,0,14,14,79,38,0,7,6,6
12/05/94,11:20:00,46,29,28,32,0,15,15,79,38,0,7,6,6
12/05/94,11:25:00,42,32,31,38,0,14,13,78,38,0,7,6,6
12/05/94,11:30:00,38,32,30,36,0,16,16,79,38,0,7,6,7
12/05/94,11:35:00,39,43,32,33,0,22,21,78,40,0,7,5,7
12/05/94,11:40:00,40,44,42,39,0,22,22,78,40,0,7,6,7
12/05/94,11:45:00,44,54,38,32,0,22,22,78,40,0,7,5,7
12/05/94,11:50:00,47,34,34,36,0,20,19,78,38,0,7,6,7
12/05/94,11:55:00,37,29,45,38,0,17,16,79,38,0,7,6,6
12/05/94,12:00:00,31,31,39,30,0,21,20,79,38,0,7,6,7
12/05/94,12:05:00,39,16,33,34,0,21,20,78,38,0,7,6,6
12/05/94,12:10:00,39,33,31,33,0,21,20,79,38,0,8,6,6
12/05/94,12:15:00,48,22,38,27,0,21,20,79,38,0,7,6,6
12/05/94,12:20:00,38,35,33,34,0,21,20,79,40,0,7,6,6
12/05/94,12:25:00,38,43,35,34,0,19,18,79,40,0,7,6,6
12/05/94,12:30:00,42,15,40,40,0,19,18,79,49,0,7,6,6
12/05/94,12:35:00,38,38,27,33,0,18,17,79,60,0,7,6,7
12/05/94,12:40:00,39,30,35,33,0,19,18,79,42,0,7,6,7
12/05/94,12:45:00,38,46,35,38,0,17,16,79,42,0,7,6,7
12/05/94,12:50:00,37,24,28,35,0,14,13,79,40,0,7,6,7
12/05/94,12:55:00,44,36,31,39,0,13,12,79,40,0,7,6,7
12/05/94,13:00:00,37,39,30,40,0,12,11,79,54,0,7,6,7
12/05/94,13:05:00,48,44,38,37,0,11,11,79,42,0,7,6,7
12/05/94,13:10:00,49,41,39,38,0,10,10,79,42,0,8,6,7
12/05/94,13:15:00,58,44,31,38,0,12,11,79,42,0,7,6,7
12/05/94,13:20:00,40,39,36,31,0,12,11,79,40,0,7,6,7
12/05/94,13:25:00,52,40,30,30,0,13,12,79,40,0,7,6,7
12/05/94,13:30:00,48,33,28,36,0,15,14,79,49,0,7,6,7
12/05/94,13:35:00,39,53,34,42,0,16,16,79,40,0,7,6,7
12/05/94,13:40:00,42,29,31,37,0,19,18,79,40,0,7,6,8
12/05/94,13:45:00,45,46,36,38,0,17,17,78,39,0,7,6,8
12/05/94,13:50:00,35,36,35,31,0,16,16,79,42,0,7,6,7
12/05/94,13:55:00,41,36,33,37,0,18,17,79,42,0,7,6,7
12/05/94,14:00:00,38,27,32,35,0,18,18,78,42,0,7,6,7
12/05/94,14:05:00,45,33,34,37,0,15,14,79,40,0,7,6,7
12/05/94,14:10:00,45,27,33,33,0,15,14,79,40,0,6,6,6
12/05/94,14:15:00,33,27,37,34,0,18,17,79,40,0,7,6,7
12/05/94,14:20:00,46,30,35,34,0,19,18,79,40,0,7,6,7
12/05/94,14:25:00,39,42,36,32,0,20,19,79,40,0,7,6,6
12/05/94,14:30:00,46,32,37,31,0,21,20,79,49,0,7,6,6
12/05/94,14:35:00,43,38,38,24,0,22,21,78,42,0,6,6,7
12/05/94,14:40:00,39,32,31,32,0,17,16,78,42,0,6,6,7
12/05/94,14:45:00,38,46,41,35,0,18,18,78,42,0,6,6,8
12/05/94,14:50:00,38,38,34,39,0,15,15,78,40,0,6,6,7
12/05/94,14:55:00,37,27,35,36,0,16,16,78,40,0,6,6,7
12/05/94,15:00:00,48,39,36,41,0,12,12,78,40,0,6,6,6
12/05/94,15:05:00,42,38,36,37,0,9,10,78,40,0,6,6,6
12/05/94,15:10:00,53,51,41,38,0,8,8,78,40,0,6,6,6
12/05/94,15:15:00,40,42,36,37,0,8,8,78,57,0,6,6,6
12/05/94,15:20:00,43,35,42,41,0,8,8,78,42,0,7,6,6
12/05/94,15:25:00,42,26,46,41,0,8,8,78,42,0,7,6,6
12/05/94,15:30:00,50,41,33,34,0,8,8,78,41,0,7,6,6
12/05/94,15:35:00,43,36,40,35,0,8,8,78,40,0,7,6,6
12/05/94,15:40:00,49,43,31,38,0,9,8,78,40,0,7,6,6
12/05/94,15:45:00,57,43,31,33,0,9,9,78,40,0,6,6,6
12/05/94,15:50:00,49,47,37,40,0,10,9,78,40,0,7,5,7
12/05/94,15:55:00,49,41,32,37,0,11,10,78,40,0,6,5,7
12/05/94,16:00:00,46,43,39,39,0,11,11,78,40,0,7,5,7
12/05/94,16:05:00,48,35,31,33,0,12,11,78,40,0,6,5,7
12/05/94,16:10:00,49,40,29,39,0,12,12,79,42,0,6,5,7
12/05/94,16:15:00,40,31,31,34,0,14,13,79,42,0,7,5,6
12/05/94,16:20:00,46,38,41,34,0,14,14,79,40,0,7,5,6
12/05/94,16:25:00,33,37,36,39,0,15,14,79,40,0,8,5,6
12/05/94,16:30:00,38,39,35,31,0,15,14,79,49,0,7,6,6
12/05/94,16:35:00,44,25,33,37,0,15,14,79,40,0,7,6,6
12/05/94,16:40:00,39,38,36,37,0,15,15,79,40,0,7,5,6
12/05/94,16:45:00,57,39,31,35,0,16,16,79,40,0,7,5,6
12/05/94,16:50:00,40,37,34,36,0,17,17,79,40,0,7,5,6
12/05/94,16:55:00,44,30,31,38,0,18,18,79,46,0,7,5,7
12/05/94,17:00:00,50,29,27,36,0,20,19,79,42,0,7,5,7
12/05/94,17:05:00,28,36,37,31,0,21,21,79,39,0,7,5,7
12/05/94,17:10:00,34,35,34,35,0,23,22,78,40,0,7,5,7
12/05/94,17:15:00,44,40,21,32,0,24,23,78,40,0,7,5,7
12/05/94,17:20:00,30,32,32,30,0,25,24,78,40,0,7,5,7
12/05/94,17:25:00,33,37,27,33,0,25,24,78,39,0,8,6,6
12/05/94,17:30:00,46,32,33,33,0,25,24,78,39,0,8,6,7
12/05/94,17:35:00,50,23,30,37,0,27,26,78,42,0,8,6,6
12/05/94,17:40:00,35,43,29,29,0,29,27,78,42,0,7,6,7
12/05/94,17:45:00,32,39,37,31,0,29,28,78,41,0,7,6,7
12/05/94,17:50:00,37,36,33,30,0,30,29,78,39,0,7,6,7
12/05/94,17:55:00,41,48,35,30,0,28,27,78,40,0,7,6,7
12/05/94,18:00:00,32,56,35,33,0,29,28,78,40,0,7,6,7
12/05/94,18:05:00,39,29,32,16,0,31,29,78,39,0,7,6,8
12/05/94,18:10:00,48,45,30,37,0,30,29,78,39,0,7,5,7
12/05/94,18:15:00,46,29,32,33,0,29,28,78,39,0,7,5,7
12/05/94,18:20:00,41,36,36,29,0,30,28,78,39,0,7,6,7
12/05/94,18:25:00,45,26,32,29,0,30,28,78,41,0,7,6,7
12/05/94,18:30:00,34,27,39,38,0,29,28,78,41,0,8,6,7
12/05/94,18:35:00,29,35,30,34,0,27,26,78,39,0,7,6,7
12/05/94,18:40:00,40,47,33,34,0,28,27,78,39,0,7,6,7
12/05/94,18:45:00,39,36,27,33,0,30,29,78,39,0,7,6,6
12/05/94,18:50:00,40,30,27,32,0,34,33,78,39,0,7,6,7
12/05/94,18:55:00,50,38,34,31,0,31,30,78,39,0,7,6,7
12/05/94,19:00:00,40,32,36,36,0,37,36,78,53,0,7,6,6
12/05/94,19:05:00,38,46,36,36,0,42,40,78,47,0,7,6,7
12/05/94,19:10:00,51,43,32,38,0,45,43,78,49,0,7,6,7
12/05/94,19:15:00,39,37,29,33,0,39,37,78,49,0,7,6,7
12/05/94,19:20:00,37,47,28,28,0,38,36,78,47,0,7,6,7
12/05/94,19:25:00,47,44,39,35,0,32,31,78,47,0,7,6,7
12/05/94,19:30:00,38,39,44,26,0,34,33,78,45,0,8,6,7
12/05/94,19:35:00,36,37,39,36,0,35,33,78,45,0,8,6,7
12/05/94,19:40:00,43,26,33,30,0,38,37,78,45,0,8,6,7
12/05/94,19:45:00,41,40,35,31,0,39,37,78,45,0,7,6,7
12/05/94,19:50:00,43,40,26,36,0,43,41,78,45,0,7,6,7
12/05/94,19:55:00,40,40,33,34,0,38,37,78,53,0,7,6,7
12/05/94,20:00:00,46,49,39,33,0,34,32,78,53,0,7,6,7
12/05/94,20:05:00,47,26,42,34,0,36,34,78,53,0,7,6,7
12/05/94,20:10:00,53,29,33,36,0,43,41,78,51,0,7,7,7
12/05/94,20:15:00,46,43,42,35,0,34,33,78,51,0,7,7,7
12/05/94,20:20:00,48,38,37,37,0,38,36,78,60,0,7,6,7
12/05/94,20:25:00,44,42,39,40,0,37,36,78,60,0,7,6,7
12/05/94,20:30:00,53,37,44,39,0,33,31,78,60,0,7,6,7
12/05/94,20:35:00,43,27,36,36,0,33,31,78,52,0,8,6,7
12/05/94,20:40:00,49,39,36,37,0,31,30,78,54,0,8,6,6
12/05/94,20:45:00,39,29,29,25,0,31,30,78,54,0,8,6,6
12/05/94,20:50:00,55,42,34,31,0,31,30,78,54,0,8,6,6
12/05/94,20:55:00,45,37,37,37,0,32,31,78,52,0,7,6,6
12/05/94,21:00:00,45,34,29,34,0,34,33,78,52,0,7,6,6
12/05/94,21:05:00,38,47,38,37,0,33,32,78,52,0,7,6,6
12/05/94,21:10:00,34,40,33,31,0,34,33,79,52,0,7,6,6
12/05/94,21:15:00,41,53,25,41,0,31,29,78,52,0,7,6,7
12/05/94,21:20:00,54,36,41,33,0,30,29,78,52,0,7,6,7
12/05/94,21:25:00,34,36,36,34,0,32,30,79,54,0,7,6,6
12/05/94,21:30:00,30,36,48,35,0,34,33,78,54,0,7,6,6
12/05/94,21:35:00,47,32,31,30,0,36,36,78,54,0,7,5,7
12/05/94,21:40:00,39,36,30,34,0,41,39,78,52,0,8,5,6
12/05/94,21:45:00,36,28,34,29,0,40,39,78,52,0,8,5,7
12/05/94,21:50:00,28,39,28,29,0,44,42,78,43,0,8,5,6
12/05/94,21:55:00,37,37,34,34,0,41,39,78,43,0,8,5,6
12/05/94,22:00:00,45,39,31,33,0,39,37,78,43,0,7,6,6
12/05/94,22:05:00,33,33,22,33,0,39,38,78,43,0,7,6,6
12/05/94,22:10:00,40,46,27,32,0,40,39,78,43,0,8,6,6
12/05/94,22:15:00,51,54,27,32,0,41,39,78,45,0,7,6,6
12/05/94,22:20:00,36,28,30,31,0,43,41,78,45,0,7,6,7
12/05/94,22:25:00,47,53,36,32,0,45,43,77,43,0,7,6,7
12/05/94,22:30:00,43,45,32,30,0,47,45,77,43,0,7,6,7
12/05/94,22:35:00,55,33,34,31,0,48,46,77,39,0,7,6,7
12/05/94,22:40:00,49,40,40,29,0,47,45,78,52,0,8,6,7
12/05/94,22:45:00,50,37,34,30,0,46,44,78,67,0,8,6,7
12/05/94,22:50:00,46,36,39,32,0,47,45,77,52,0,7,6,7
12/05/94,22:55:00,47,37,37,29,0,51,49,77,52,0,7,6,7
12/05/94,23:00:00,51,34,35,28,0,56,53,77,54,0,7,6,7
12/05/94,23:05:00,49,30,38,28,0,52,49,77,50,0,7,6,7
12/05/94,23:10:00,50,38,31,31,0,52,50,77,49,0,7,6,7
12/05/94,23:15:00,47,40,34,24,0,53,51,77,48,0,7,6,7
12/05/94,23:20:00,49,36,35,29,0,57,54,77,48,0,7,6,7
12/05/94,23:25:00,46,37,35,29,0,52,50,77,48,0,7,6,7
12/05/94,23:30:00,51,34,35,31,0,51,49,77,48,0,7,5,8
12/05/94,23:35:00,51,35,39,27,0,51,48,78,48,0,7,5,8
12/05/94,23:40:00,49,32,38,30,0,52,49,77,48,0,8,6,7
12/05/94,23:45:00,49,31,33,22,0,52,50,78,50,0,9,6,7
12/05/94,23:50:00,47,36,38,29,0,54,52,77,54,0,9,6,7
12/05/94,23:55:00,4,12,25,14,0,61,58,80,48,0,9,7,7
12/06/94,00:00:00,26,24,28,22,0,61,58,80,48,0,9,7,8
